When you browse on this site, cookies collect data to enhance your experience and personalize the content and advertising you see.
Visit our Privacy Policy to learn more. By continuing to use the site, you agree to this use of cookies and data.
  • în România
  • Lista ţărilor
  • Pe 7 zile
  • Temperatura apei
  • Hartă satelitară
  • Meteo pe hartă
  • Widget-uri
  • user-avatar
    Intrare

    Meteo pe oră la Dalat

    Astăzi, 16 Ianuarie, Miercuri

    Timp Temperatura Precipitaţii Vânt Presiune Umiditate
    00:00 +18°C° 0 mm 1 m/s 653 mmHg 96%
    01:00 +18°C° 0 mm 1 m/s 653 mmHg 96%
    02:00 +16°C° 0 mm 1 m/s 653 mmHg 96%
    03:00 +16°C° 0 mm 1 m/s 652 mmHg 96%
    04:00 +16°C° 0 mm 1 m/s 652 mmHg 97%
    05:00 +16°C° 0 mm 1 m/s 653 mmHg 96%
    06:00 +16°C° 0 mm 1 m/s 653 mmHg 95%
    07:00 +18°C° 0 mm 1 m/s 653 mmHg 94%
    08:00 +19°C° 0 mm 2 m/s 654 mmHg 82%
    09:00 +21°C° 0 mm 2 m/s 654 mmHg 71%
    10:00 +25°C° 0 mm 2 m/s 655 mmHg 59%
    11:00 +25°C° 0 mm 2 m/s 655 mmHg 58%
    12:00 +26°C° 0 mm 2 m/s 655 mmHg 56%
    13:00 +26°C° 0 mm 2 m/s 655 mmHg 55%
    14:00 +25°C° 0.2 mm 2 m/s 654 mmHg 62%
    15:00 +24°C° 0.2 mm 2 m/s 654 mmHg 69%
    16:00 +23°C° 0.2 mm 2 m/s 653 mmHg 75%
    17:00 +21°C° 0.2 mm 2 m/s 653 mmHg 82%
    18:00 +20°C° 0.2 mm 1 m/s 653 mmHg 88%
    19:00 +19°C° 0.2 mm 1 m/s 653 mmHg 95%
    20:00 +18°C° 0 mm 1 m/s 653 mmHg 95%
    21:00 +18°C° 0 mm 1 m/s 653 mmHg 96%
    22:00 +18°C° 0 mm 1 m/s 653 mmHg 96%
    23:00 +18°C° 0 mm 1 m/s 653 mmHg 96%

    Mâine, 17 Ianuarie, Joi

    Timp Temperatura Precipitaţii Vânt Presiune Umiditate
    00:00 +16°C° 0 mm 1 m/s 653 mmHg 96%
    01:00 +16°C° 0 mm 1 m/s 653 mmHg 96%
    02:00 +16°C° 0 mm 1 m/s 653 mmHg 96%
    03:00 +16°C° 0 mm 1 m/s 652 mmHg 96%
    04:00 +16°C° 0 mm 1 m/s 652 mmHg 96%
    05:00 +18°C° 0 mm 1 m/s 652 mmHg 95%
    06:00 +18°C° 0 mm 1 m/s 653 mmHg 94%
    07:00 +17°C° 0 mm 2 m/s 653 mmHg 93%
    08:00 +19°C° 0 mm 2 m/s 654 mmHg 86%
    09:00 +20°C° 0 mm 2 m/s 654 mmHg 78%
    10:00 +22°C° 0 mm 3 m/s 655 mmHg 71%
    11:00 +22°C° 0.1 mm 3 m/s 655 mmHg 69%
    12:00 +22°C° 0.1 mm 3 m/s 654 mmHg 68%
    13:00 +24°C° 0.1 mm 3 m/s 654 mmHg 67%
    14:00 +22°C° 0.1 mm 3 m/s 654 mmHg 70%
    15:00 +21°C° 0.1 mm 3 m/s 653 mmHg 72%
    16:00 +21°C° 0.1 mm 3 m/s 653 mmHg 75%
    17:00 +19°C° 0 mm 2 m/s 653 mmHg 81%
    18:00 +18°C° 0 mm 2 m/s 653 mmHg 87%
    19:00 +18°C° 0 mm 1 m/s 653 mmHg 93%
    20:00 +17°C° 0 mm 2 m/s 653 mmHg 93%
    21:00 +17°C° 0 mm 2 m/s 653 mmHg 93%
    22:00 +17°C° 0 mm 2 m/s 654 mmHg 93%
    23:00 +16°C° 0 mm 2 m/s 653 mmHg 93%

    Poimâine, 18 Ianuarie, Vineri

    Timp Temperatura Precipitaţii Vânt Presiune Umiditate
    00:00 +16°C° 0 mm 2 m/s 653 mmHg 93%
    01:00 +15°C° 0 mm 2 m/s 653 mmHg 93%
    02:00 +15°C° 0 mm 2 m/s 652 mmHg 93%
    03:00 +16°C° 0 mm 2 m/s 652 mmHg 93%
    04:00 +16°C° 0 mm 2 m/s 652 mmHg 93%
    05:00 +16°C° 0 mm 2 m/s 652 mmHg 92%
    06:00 +16°C° 0 mm 2 m/s 653 mmHg 91%
    07:00 +17°C° 0 mm 3 m/s 653 mmHg 90%
    08:00 +18°C° 0 mm 3 m/s 654 mmHg 83%
    09:00 +20°C° 0 mm 4 m/s 655 mmHg 77%
    10:00 +21°C° 0 mm 4 m/s 655 mmHg 71%
    11:00 +21°C° 0 mm 4 m/s 655 mmHg 70%
    12:00 +22°C° 0 mm 4 m/s 654 mmHg 69%
    13:00 +22°C° 0 mm 3 m/s 654 mmHg 68%
    14:00 +21°C° 0 mm 3 m/s 653 mmHg 70%
    15:00 +21°C° 0 mm 3 m/s 653 mmHg 72%
    16:00 +20°C° 0 mm 3 m/s 652 mmHg 75%
    17:00 +19°C° 0 mm 2 m/s 653 mmHg 80%
    18:00 +18°C° 0 mm 2 m/s 653 mmHg 86%
    19:00 +17°C° 0 mm 2 m/s 653 mmHg 92%
    20:00 +17°C° 0 mm 2 m/s 653 mmHg 93%
    21:00 +16°C° 0 mm 2 m/s 653 mmHg 94%
    22:00 +16°C° 0 mm 2 m/s 654 mmHg 95%
    23:00 +16°C° 0 mm 2 m/s 653 mmHg 95%

    19 Ianuarie, Sâmbătă

    Timp Temperatura Precipitaţii Vânt Presiune Umiditate
    00:00 +16°C° 0 mm 1 m/s 653 mmHg 95%
    01:00 +16°C° 0 mm 1 m/s 653 mmHg 95%
    02:00 +16°C° 0 mm 1 m/s 652 mmHg 96%
    03:00 +15°C° 0 mm 1 m/s 652 mmHg 96%
    04:00 +15°C° 0 mm 1 m/s 652 mmHg 96%
    05:00 +15°C° 0 mm 1 m/s 652 mmHg 95%
    06:00 +16°C° 0 mm 1 m/s 652 mmHg 93%
    07:00 +16°C° 0 mm 1 m/s 653 mmHg 92%
    08:00 +18°C° 0 mm 2 m/s 654 mmHg 82%
    09:00 +20°C° 0 mm 2 m/s 655 mmHg 72%
    10:00 +22°C° 0 mm 3 m/s 655 mmHg 62%
    11:00 +24°C° 0 mm 2 m/s 655 mmHg 57%
    12:00 +25°C° 0 mm 2 m/s 655 mmHg 52%
    13:00 +26°C° 0 mm 2 m/s 655 mmHg 47%
    14:00 +25°C° 0 mm 2 m/s 654 mmHg 49%
    15:00 +25°C° 0 mm 2 m/s 653 mmHg 51%
    16:00 +24°C° 0 mm 2 m/s 653 mmHg 52%
    17:00 +21°C° 0 mm 2 m/s 653 mmHg 65%
    18:00 +19°C° 0 mm 1 m/s 652 mmHg 77%
    19:00 +16°C° 0 mm 1 m/s 652 mmHg 90%
    20:00 +15°C° 0 mm 1 m/s 652 mmHg 91%
    21:00 +15°C° 0 mm 1 m/s 652 mmHg 92%
    22:00 +14°C° 0 mm 1 m/s 653 mmHg 94%
    23:00 +14°C° 0 mm 1 m/s 652 mmHg 93%

    20 Ianuarie, Duminică

    Timp Temperatura Precipitaţii Vânt Presiune Umiditate
    00:00 +14°C° 0 mm 1 m/s 652 mmHg 92%
    01:00 +13°C° 0 mm 1 m/s 651 mmHg 91%
    02:00 +13°C° 0 mm 1 m/s 651 mmHg 91%
    03:00 +13°C° 0 mm 1 m/s 651 mmHg 90%
    04:00 +13°C° 0 mm 1 m/s 651 mmHg 90%
    05:00 +14°C° 0 mm 1 m/s 651 mmHg 89%
    06:00 +14°C° 0 mm 1 m/s 652 mmHg 88%
    07:00 +15°C° 0 mm 1 m/s 652 mmHg 86%
    08:00 +18°C° 0 mm 2 m/s 654 mmHg 74%
    09:00 +21°C° 0 mm 2 m/s 655 mmHg 63%
    10:00 +25°C° 0 mm 2 m/s 656 mmHg 51%
    11:00 +26°C° 0 mm 2 m/s 655 mmHg 48%
    12:00 +27°C° 0 mm 2 m/s 655 mmHg 45%
    13:00 +28°C° 0 mm 2 m/s 655 mmHg 42%
    14:00 +27°C° 0 mm 2 m/s 654 mmHg 46%
    15:00 +26°C° 0 mm 2 m/s 653 mmHg 51%
    16:00 +25°C° 0 mm 2 m/s 653 mmHg 55%
    17:00 +23°C° 0 mm 1 m/s 652 mmHg 66%
    18:00 +20°C° 0 mm 1 m/s 652 mmHg 77%
    19:00 +18°C° 0 mm 1 m/s 652 mmHg 89%
    20:00 +18°C° 0 mm 1 m/s 653 mmHg 90%
    21:00 +18°C° 0 mm 1 m/s 653 mmHg 91%
    22:00 +18°C° 0 mm 1 m/s 653 mmHg 92%
    23:00 +16°C° 0 mm 1 m/s 653 mmHg 92%

    21 Ianuarie, Luni

    Timp Temperatura Precipitaţii Vânt Presiune Umiditate
    00:00 +16°C° 0 mm 1 m/s 653 mmHg 93%
    01:00 +15°C° 0 mm 1 m/s 652 mmHg 94%
    02:00 +15°C° 0 mm 1 m/s 652 mmHg 94%
    03:00 +15°C° 0 mm 1 m/s 652 mmHg 95%
    04:00 +15°C° 0 mm 1 m/s 651 mmHg 95%
    05:00 +15°C° 0 mm 1 m/s 652 mmHg 93%
    06:00 +16°C° 0 mm 1 m/s 652 mmHg 92%
    07:00 +16°C° 0 mm 1 m/s 653 mmHg 91%
    08:00 +20°C° 0 mm 1 m/s 654 mmHg 78%
    09:00 +22°C° 0 mm 1 m/s 655 mmHg 66%
    10:00 +25°C° 0 mm 2 m/s 656 mmHg 53%
    11:00 +26°C° 0 mm 2 m/s 656 mmHg 51%
    12:00 +26°C° 0 mm 2 m/s 655 mmHg 49%
    13:00 +27°C° 0 mm 2 m/s 655 mmHg 47%
    14:00 +26°C° 0.1 mm 2 m/s 654 mmHg 54%
    15:00 +24°C° 0.1 mm 1 m/s 653 mmHg 62%
    16:00 +23°C° 0.1 mm 1 m/s 653 mmHg 69%
    17:00 +21°C° 0.1 mm 1 m/s 653 mmHg 77%
    18:00 +20°C° 0.1 mm 1 m/s 653 mmHg 84%
    19:00 +18°C° 0.1 mm 1 m/s 653 mmHg 92%
    20:00 +18°C° 0 mm 1 m/s 653 mmHg 93%
    21:00 +16°C° 0 mm 1 m/s 653 mmHg 94%
    22:00 +16°C° 0 mm 1 m/s 653 mmHg 95%
    23:00 +16°C° 0 mm 1 m/s 653 mmHg 95%
    Arată mai mult